"Sample Date","Sample Time","Sensor Name","Sample Value","Units","Flow Rate","Sample Interval","Sample Volume","Laser Status","Number Channels","Micron Size 0","Counts/Channel 0","Micron Size 1","Counts/Channel 1","Micron Size 2","Counts/Channel 2","Micron Size 3","Counts/Channel 3","Micron Size 4","Counts/Channel 4","Micron Size 5","Counts/Channel 5","Micron Size 6","Counts/Channel 6","Micron Size 7","Counts/Channel 7","Micron Size 8","Counts/Channel 8","Micron Size 9","Counts/Channel 9","Micron Size 10","Counts/Channel 10","Micron Size 11","Counts/Channel 11","Micron Size 12","Counts/Channel 12","Micron Size 13","Counts/Channel 13","Micron Size 14","Counts/Channel 14","Micron Size 15","Counts/Channel 15","Micron Size 16","Counts/Channel 16","Micron Size 17","Counts/Channel 17","Micron Size 18","Counts/Channel 18","Micron Size 19","Counts/Channel 19","Micron Size 20","Counts/Channel 20","Micron Size 21","Counts/Channel 21","Micron Size 22","Counts/Channel 22","Micron Size 23","Counts/Channel 23","Micron Size 24","Counts/Channel 24","Micron Size 25","Counts/Channel 25","Micron Size 26","Counts/Channel 26","Micron Size 27","Counts/Channel 27","Micron Size 28","Counts/Channel 28","Micron Size 29","Counts/Channel 29","Micron Size 30","Counts/Channel 30","Micron Size 31","Counts/Channel 31"
"07/02/06","12:00:03","AMMA06",69961.000,"cc",28332.842,6.00,2833.284,1,6,0.100,37650.000,0.200,25426.000,0.300,4372.000,0.500,1494.000,1.000,1019.000,5.000,0
"07/02/06","12:00:09","AMMA06",69498.000,"cc",28272.721,6.00,2827.272,1,6,0.100,37571.000,0.200,25074.000,0.300,4362.000,0.500,1448.000,1.000,1041.000,5.000,2.000
"07/02/06","12:00:15","AMMA06",69147.000,"cc",28254.012,6.00,2825.401,1,6,0.100,37574.000,0.200,24961.000,0.300,4292.000,0.500,1410.000,1.000,909.000,5.000,1.000
"07/02/06","12:00:21","AMMA06",70111.000,"cc",28265.191,6.00,2826.519,1,6,0.100,38203.000,0.200,25251.000,0.300,4250.000,0.500,1435.000,1.000,971.000,5.000,1.000
"07/02/06","12:00:27","AMMA06",69896.000,"cc",28381.834,6.00,2838.184,1,6,0.100,38087.000,0.200,25272.000,0.300,4206.000,0.500,1390.000,1.000,939.000,5.000,2.000
"07/02/06","12:00:33","AMMA06",69553.000,"cc",28339.676,6.00,2833.968,1,6,0.100,37890.000,0.200,24976.000,0.300,4284.000,0.500,1410.000,1.000,993.000,5.000,0
"07/02/06","12:00:39","AMMA06",69529.000,"cc",28291.453,6.00,2829.146,1,6,0.100,37960.000,0.200,24935.000,0.300,4321.000,0.500,1450.000,1.000,862.000,5.000,1.000
"07/02/06","12:00:45","AMMA06",69512.000,"cc",28366.357,6.00,2836.636,1,6,0.100,37857.000,0.200,25047.000,0.300,4269.000,0.500,1415.000,1.000,924.000,5.000,0
"07/02/06","12:00:51","AMMA06",70221.000,"cc",28335.938,6.00,2833.594,1,6,0.100,38074.000,0.200,25403.000,0.300,4269.000,0.500,1498.000,1.000,975.000,5.000,2.000
"07/02/06","12:00:57","AMMA06",69387.000,"cc",28298.041,6.00,2829.804,1,6,0.100,37909.000,0.200,24863.000,0.300,4174.000,0.500,1481.000,1.000,960.000,5.000,0
"07/02/06","12:01:03","AMMA06",69607.000,"cc",28307.670,6.00,2830.767,1,6,0.100,38061.000,0.200,24978.000,0.300,4130.000,0.500,1499.000,1.000,938.000,5.000,1.000
"07/02/06","12:01:09","AMMA06",69389.000,"cc",28302.459,6.00,2830.246,1,6,0.100,37634.000,0.200,25054.000,0.300,4239.000,0.500,1474.000,1.000,988.000,5.000,0
"07/02/06","12:01:15","AMMA06",70121.000,"cc",28324.656,6.00,2832.466,1,6,0.100,38368.000,0.200,25260.000,0.300,4121.000,0.500,1434.000,1.000,938.000,5.000,0
"07/02/06","12:01:21","AMMA06",69544.000,"cc",28326.209,6.00,2832.621,1,6,0.100,38075.000,0.200,24828.000,0.300,4202.000,0.500,1470.000,1.000,968.000,5.000,1.000
"07/02/06","12:01:27","AMMA06",69540.000,"cc",28350.615,6.00,2835.062,1,6,0.100,38166.000,0.200,24884.000,0.300,4078.000,0.500,1406.000,1.000,1006.000,5.000,0
"07/02/06","12:01:33","AMMA06",68780.000,"cc",28291.400,6.00,2829.140,1,6,0.100,37396.000,0.200,24784.000,0.300,4268.000,0.500,1439.000,1.000,891.000,5.000,2.000
"07/02/06","12:01:39","AMMA06",69203.000,"cc",28276.397,6.00,2827.640,1,6,0.100,37822.000,0.200,24789.000,0.300,4206.000,0.500,1422.000,1.000,962.000,5.000,2.000
"07/02/06","12:01:45","AMMA06",70291.000,"cc",28321.338,6.00,2832.134,1,6,0.100,38916.000,0.200,24831.000,0.300,4150.000,0.500,1411.000,1.000,983.000,5.000,0
"07/02/06","12:01:51","AMMA06",69616.000,"cc",28341.273,6.00,2834.127,1,6,0.100,38182.000,0.200,24902.000,0.300,4222.000,0.500,1399.000,1.000,911.000,5.000,0
"07/02/06","12:01:57","AMMA06",69524.000,"cc",28267.273,6.00,2826.728,1,6,0.100,37939.000,0.200,25034.000,0.300,4147.000,0.500,1497.000,1.000,907.000,5.000,0
"07/02/06","12:02:03","AMMA06",69524.000,"cc",28341.580,6.00,2834.158,1,6,0.100,37983.000,0.200,25028.000,0.300,4096.000,0.500,1459.000,1.000,954.000,5.000,4.000
"07/02/06","12:02:09","AMMA06",69246.000,"cc",28390.418,6.00,2839.042,1,6,0.100,37833.000,0.200,24990.000,0.300,4038.000,0.500,1409.000,1.000,974.000,5.000,2.000
"07/02/06","12:02:15","AMMA06",69069.000,"cc",28373.895,6.00,2837.390,1,6,0.100,37746.000,0.200,24821.000,0.300,4171.000,0.500,1387.000,1.000,944.000,5.000,0
"07/02/06","12:02:21","AMMA06",69107.000,"cc",28298.229,6.00,2829.823,1,6,0.100,37739.000,0.200,24725.000,0.300,4142.000,0.500,1516.000,1.000,984.000,5.000,1.000
"07/02/06","12:02:27","AMMA06",69221.000,"cc",28305.199,6.00,2830.520,1,6,0.100,37966.000,0.200,24590.000,0.300,4193.000,0.500,1496.000,1.000,974.000,5.000,2.000
"07/02/06","12:02:33","AMMA06",69140.000,"cc",28310.098,6.00,2831.010,1,6,0.100,37652.000,0.200,24864.000,0.300,4120.000,0.500,1576.000,1.000,927.000,5.000,1.000
"07/02/06","12:02:39","AMMA06",69398.000,"cc",28306.102,6.00,2830.610,1,6,0.100,37905.000,0.200,24897.000,0.300,4112.000,0.500,1482.000,1.000,1001.000,5.000,1.000
"07/02/06","12:02:45","AMMA06",68820.000,"cc",28327.090,6.00,2832.709,1,6,0.100,37120.000,0.200,25017.000,0.300,4275.000,0.500,1463.000,1.000,945.000,5.000,0
"07/02/06","12:02:51","AMMA06",69608.000,"cc",28333.533,6.00,2833.354,1,6,0.100,37708.000,0.200,25146.000,0.300,4360.000,0.500,1453.000,1.000,940.000,5.000,1.000
"07/02/06","12:02:57","AMMA06",69302.000,"cc",28305.918,6.00,2830.592,1,6,0.100,37871.000,0.200,24790.000,0.300,4206.000,0.500,1453.000,1.000,982.000,5.000,0
"07/02/06","12:03:03","AMMA06",69040.000,"cc",28297.867,6.00,2829.787,1,6,0.100,37506.000,0.200,24896.000,0.300,4208.000,0.500,1464.000,1.000,966.000,5.000,0
"07/02/06","12:03:09","AMMA06",69882.000,"cc",28311.863,6.00,2831.187,1,6,0.100,37991.000,0.200,25358.000,0.300,4152.000,0.500,1455.000,1.000,926.000,5.000,0
"07/02/06","12:03:15","AMMA06",69481.000,"cc",28344.346,6.00,2834.435,1,6,0.100,37825.000,0.200,25064.000,0.300,4205.000,0.500,1439.000,1.000,947.000,5.000,1.000
"07/02/06","12:03:21","AMMA06",69212.000,"cc",28304.213,6.00,2830.421,1,6,0.100,37433.000,0.200,25130.000,0.300,4155.000,0.500,1524.000,1.000,970.000,5.000,0
"07/02/06","12:03:27","AMMA06",69463.000,"cc",28297.891,6.00,2829.789,1,6,0.100,37642.000,0.200,25126.000,0.300,4267.000,0.500,1465.000,1.000,963.000,5.000,0
"07/02/06","12:03:33","AMMA06",69137.000,"cc",28360.322,6.00,2836.033,1,6,0.100,37632.000,0.200,24882.000,0.300,4289.000,0.500,1387.000,1.000,947.000,5.000,0
"07/02/06","12:03:39","AMMA06",69490.000,"cc",28292.850,6.00,2829.285,1,6,0.100,37637.000,0.200,25093.000,0.300,4324.000,0.500,1429.000,1.000,1006.000,5.000,1.000
"07/02/06","12:03:45","AMMA06",69482.000,"cc",28293.268,6.00,2829.327,1,6,0.100,37422.000,0.200,25372.000,0.300,4321.000,0.500,1388.000,1.000,978.000,5.000,1.000
"07/02/06","12:03:51","AMMA06",83501.000,"cc",28317.047,6.00,2831.705,1,6,0.100,47144.000,0.200,28625.000,0.300,5228.000,0.500,1491.000,1.000,1011.000,5.000,2.000
"07/02/06","12:03:57","AMMA06",72413.000,"cc",28303.672,6.00,2830.367,1,6,0.100,39809.000,0.200,25719.000,0.300,4556.000,0.500,1419.000,1.000,908.000,5.000,2.000
"07/02/06","12:04:03","AMMA06",70741.000,"cc",28324.156,6.00,2832.416,1,6,0.100,38469.000,0.200,25448.000,0.300,4359.000,0.500,1480.000,1.000,984.000,5.000,1.000
"07/02/06","12:04:09","AMMA06",70843.000,"cc",28360.498,6.00,2836.050,1,6,0.100,38189.000,0.200,25783.000,0.300,4456.000,0.500,1442.000,1.000,972.000,5.000,1.000
"07/02/06","12:04:15","AMMA06",70475.000,"cc",28361.742,6.00,2836.174,1,6,0.100,38027.000,0.200,25507.000,0.300,4534.000,0.500,1480.000,1.000,926.000,5.000,1.000
"07/02/06","12:04:21","AMMA06",70198.000,"cc",28283.666,6.00,2828.367,1,6,0.100,37835.000,0.200,25542.000,0.300,4446.000,0.500,1416.000,1.000,958.000,5.000,1.000
"07/02/06","12:04:27","AMMA06",71019.000,"cc",28314.207,6.00,2831.421,1,6,0.100,38467.000,0.200,25764.000,0.300,4396.000,0.500,1476.000,1.000,915.000,5.000,1.000
"07/02/06","12:04:33","AMMA06",70137.000,"cc",28328.641,6.00,2832.864,1,6,0.100,37974.000,0.200,25381.000,0.300,4408.000,0.500,1427.000,1.000,945.000,5.000,2.000
"07/02/06","12:04:39","AMMA06",69870.000,"cc",28321.979,6.00,2832.198,1,6,0.100,37919.000,0.200,25326.000,0.300,4265.000,0.500,1435.000,1.000,925.000,5.000,0
"07/02/06","12:04:45","AMMA06",69714.000,"cc",28316.465,6.00,2831.647,1,6,0.100,37534.000,0.200,25414.000,0.300,4314.000,0.500,1489.000,1.000,963.000,5.000,0
"07/02/06","12:04:51","AMMA06",70058.000,"cc",28297.158,6.00,2829.716,1,6,0.100,37704.000,0.200,25490.000,0.300,4440.000,0.500,1468.000,1.000,956.000,5.000,0
"07/02/06","12:04:57","AMMA06",69503.000,"cc",28317.402,6.00,2831.741,1,6,0.100,37646.000,0.200,25100.000,0.300,4333.000,0.500,1477.000,1.000,946.000,5.000,1.000
"07/02/06","12:05:02","AMMA06",69728.000,"cc",28337.440,6.00,2833.744,1,6,0.100,37880.000,0.200,25127.000,0.300,4318.000,0.500,1470.000,1.000,933.000,5.000,0
"07/02/06","12:05:08","AMMA06",69488.000,"cc",28326.402,6.00,2832.640,1,6,0.100,37506.000,0.200,25265.000,0.300,4373.000,0.500,1430.000,1.000,912.000,5.000,2.000
"07/02/06","12:05:14","AMMA06",69756.000,"cc",28277.270,6.00,2827.727,1,6,0.100,37565.000,0.200,25520.000,0.300,4251.000,0.500,1445.000,1.000,974.000,5.000,1.000
"07/02/06","12:05:20","AMMA06",69458.000,"cc",28314.174,6.00,2831.418,1,6,0.100,37944.000,0.200,25005.000,0.300,4201.000,0.500,1396.000,1.000,912.000,5.000,0
"07/02/06","12:05:26","AMMA06",69265.000,"cc",28328.574,6.00,2832.858,1,6,0.100,37708.000,0.200,24814.000,0.300,4351.000,0.500,1410.000,1.000,981.000,5.000,1.000
"07/02/06","12:05:32","AMMA06",69729.000,"cc",28339.619,6.00,2833.962,1,6,0.100,37657.000,0.200,25428.000,0.300,4252.000,0.500,1429.000,1.000,962.000,5.000,1.000
"07/02/06","12:05:38","AMMA06",69565.000,"cc",28310.307,6.00,2831.031,1,6,0.100,38150.000,0.200,24834.000,0.300,4165.000,0.500,1439.000,1.000,976.000,5.000,1.000
"07/02/06","12:05:44","AMMA06",69408.000,"cc",28294.900,6.00,2829.490,1,6,0.100,37954.000,0.200,24750.000,0.300,4293.000,0.500,1477.000,1.000,934.000,5.000,0
"07/02/06","12:05:50","AMMA06",69841.000,"cc",28298.422,6.00,2829.842,1,6,0.100,38029.000,0.200,25093.000,0.300,4190.000,0.500,1555.000,1.000,972.000,5.000,2.000
"07/02/06","12:05:56","AMMA06",69282.000,"cc",28374.428,6.00,2837.443,1,6,0.100,37888.000,0.200,24895.000,0.300,4191.000,0.500,1406.000,1.000,901.000,5.000,1.000
"07/02/06","12:06:02","AMMA06",68942.000,"cc",28338.627,6.00,2833.863,1,6,0.100,37681.000,0.200,24719.000,0.300,4175.000,0.500,1473.000,1.000,894.000,5.000,0
"07/02/06","12:06:08","AMMA06",69155.000,"cc",28311.693,6.00,2831.169,1,6,0.100,37712.000,0.200,24609.000,0.300,4346.000,0.500,1488.000,1.000,999.000,5.000,1.000
"07/02/06","12:06:14","AMMA06",69339.000,"cc",28339.512,6.00,2833.951,1,6,0.100,38225.000,0.200,24526.000,0.300,4165.000,0.500,1477.000,1.000,944.000,5.000,2.000
"07/02/06","12:06:20","AMMA06",69263.000,"cc",28312.035,6.00,2831.204,1,6,0.100,38177.000,0.200,24627.000,0.300,4049.000,0.500,1430.000,1.000,980.000,5.000,0
"07/02/06","12:06:26","AMMA06",69524.000,"cc",28319.205,6.00,2831.921,1,6,0.100,38029.000,0.200,25052.000,0.300,4149.000,0.500,1387.000,1.000,907.000,5.000,0
"07/02/06","12:06:32","AMMA06",69345.000,"cc",28299.674,6.00,2829.968,1,6,0.100,38046.000,0.200,24749.000,0.300,4160.000,0.500,1479.000,1.000,909.000,5.000,2.000
"07/02/06","12:06:38","AMMA06",69476.000,"cc",28280.229,6.00,2828.023,1,6,0.100,38081.000,0.200,24888.000,0.300,4090.000,0.500,1464.000,1.000,953.000,5.000,0
"07/02/06","12:06:44","AMMA06",69490.000,"cc",28289.889,6.00,2828.989,1,6,0.100,37821.000,0.200,25163.000,0.300,4135.000,0.500,1469.000,1.000,902.000,5.000,0
"07/02/06","12:06:50","AMMA06",69283.000,"cc",28312.484,6.00,2831.249,1,6,0.100,37577.000,0.200,25214.000,0.300,4062.000,0.500,1475.000,1.000,954.000,5.000,1.000
"07/02/06","12:06:56","AMMA06",69777.000,"cc",28348.670,6.00,2834.867,1,6,0.100,38311.000,0.200,24902.000,0.300,4127.000,0.500,1427.000,1.000,1010.000,5.000,0
"07/02/06","12:07:02","AMMA06",69264.000,"cc",28341.180,6.00,2834.118,1,6,0.100,37877.000,0.200,24792.000,0.300,4189.000,0.500,1447.000,1.000,958.000,5.000,1.000
"07/02/06","12:07:08","AMMA06",69558.000,"cc",28327.977,6.00,2832.798,1,6,0.100,38146.000,0.200,24935.000,0.300,4101.000,0.500,1430.000,1.000,943.000,5.000,3.000
"07/02/06","12:07:14","AMMA06",69416.000,"cc",28313.436,6.00,2831.344,1,6,0.100,37667.000,0.200,25154.000,0.300,4142.000,0.500,1494.000,1.000,958.000,5.000,1.000
"07/02/06","12:07:20","AMMA06",69304.000,"cc",28313.676,6.00,2831.368,1,6,0.100,37875.000,0.200,24794.000,0.300,4171.000,0.500,1491.000,1.000,973.000,5.000,0
"07/02/06","12:07:26","AMMA06",69322.000,"cc",28264.043,6.00,2826.405,1,6,0.100,37691.000,0.200,24863.000,0.300,4295.000,0.500,1516.000,1.000,955.000,5.000,2.000
"07/02/06","12:07:32","AMMA06",69463.000,"cc",28338.766,6.00,2833.877,1,6,0.100,37846.000,0.200,25022.000,0.300,4199.000,0.500,1442.000,1.000,954.000,5.000,0
"07/02/06","12:07:38","AMMA06",69463.000,"cc",28335.811,6.00,2833.581,1,6,0.100,37854.000,0.200,25070.000,0.300,4112.000,0.500,1463.000,1.000,964.000,5.000,0
"07/02/06","12:07:44","AMMA06",70040.000,"cc",28261.072,6.00,2826.107,1,6,0.100,38310.000,0.200,25092.000,0.300,4137.000,0.500,1464.000,1.000,1037.000,5.000,0
"07/02/06","12:07:50","AMMA06",69696.000,"cc",28350.410,6.00,2835.041,1,6,0.100,37644.000,0.200,25293.000,0.300,4324.000,0.500,1474.000,1.000,960.000,5.000,1.000
"07/02/06","12:07:56","AMMA06",69690.000,"cc",28327.074,6.00,2832.708,1,6,0.100,37876.000,0.200,25242.000,0.300,4204.000,0.500,1394.000,1.000,974.000,5.000,0
"07/02/06","12:08:02","AMMA06",69737.000,"cc",28316.834,6.00,2831.684,1,6,0.100,38001.000,0.200,25050.000,0.300,4295.000,0.500,1451.000,1.000,940.000,5.000,0
"07/02/06","12:08:08","AMMA06",70176.000,"cc",28391.912,6.00,2839.191,1,6,0.100,38273.000,0.200,25226.000,0.300,4291.000,0.500,1375.000,1.000,1010.000,5.000,1.000
"07/02/06","12:08:14","AMMA06",69775.000,"cc",28277.924,6.00,2827.793,1,6,0.100,37871.000,0.200,25201.000,0.300,4197.000,0.500,1481.000,1.000,1024.000,5.000,1.000
"07/02/06","12:08:20","AMMA06",69733.000,"cc",28297.129,6.00,2829.713,1,6,0.100,37850.000,0.200,25340.000,0.300,4191.000,0.500,1430.000,1.000,920.000,5.000,2.000
"07/02/06","12:08:26","AMMA06",69862.000,"cc",28310.111,6.00,2831.011,1,6,0.100,37964.000,0.200,25165.000,0.300,4291.000,0.500,1470.000,1.000,971.000,5.000,1.000
"07/02/06","12:08:32","AMMA06",69970.000,"cc",28313.309,6.00,2831.331,1,6,0.100,37824.000,0.200,25376.000,0.300,4288.000,0.500,1509.000,1.000,973.000,5.000,0
"07/02/06","12:08:38","AMMA06",69210.000,"cc",28337.500,6.00,2833.750,1,6,0.100,37525.000,0.200,25173.000,0.300,4245.000,0.500,1400.000,1.000,867.000,5.000,0
"07/02/06","12:08:44","AMMA06",69419.000,"cc",28323.242,6.00,2832.325,1,6,0.100,37815.000,0.200,24967.000,0.300,4300.000,0.500,1400.000,1.000,937.000,5.000,0
"07/02/06","12:08:50","AMMA06",69339.000,"cc",28299.453,6.00,2829.946,1,6,0.100,37480.000,0.200,25077.000,0.300,4254.000,0.500,1535.000,1.000,992.000,5.000,1.000
"07/02/06","12:08:56","AMMA06",69676.000,"cc",28295.955,6.00,2829.596,1,6,0.100,37628.000,0.200,25384.000,0.300,4299.000,0.500,1451.000,1.000,914.000,5.000,0
"07/02/06","12:09:02","AMMA06",69757.000,"cc",28388.150,6.00,2838.815,1,6,0.100,37578.000,0.200,25425.000,0.300,4308.000,0.500,1461.000,1.000,985.000,5.000,0
"07/02/06","12:09:08","AMMA06",69724.000,"cc",28318.953,6.00,2831.896,1,6,0.100,37582.000,0.200,25465.000,0.300,4290.000,0.500,1433.000,1.000,952.000,5.000,2.000
"07/02/06","12:09:14","AMMA06",69339.000,"cc",28262.772,6.00,2826.277,1,6,0.100,37280.000,0.200,25358.000,0.300,4298.000,0.500,1464.000,1.000,939.000,5.000,0
"07/02/06","12:09:20","AMMA06",69438.000,"cc",28314.559,6.00,2831.456,1,6,0.100,37350.000,0.200,25393.000,0.300,4375.000,0.500,1386.000,1.000,934.000,5.000,0
"07/02/06","12:09:26","AMMA06",70021.000,"cc",28345.145,6.00,2834.515,1,6,0.100,37759.000,0.200,25375.000,0.300,4423.000,0.500,1510.000,1.000,954.000,5.000,0
"07/02/06","12:09:32","AMMA06",69990.000,"cc",28285.106,6.00,2828.511,1,6,0.100,37832.000,0.200,25373.000,0.300,4350.000,0.500,1478.000,1.000,957.000,5.000,0
"07/02/06","12:09:38","AMMA06",70003.000,"cc",28330.918,6.00,2833.092,1,6,0.100,37476.000,0.200,25537.000,0.300,4522.000,0.500,1496.000,1.000,972.000,5.000,0
"07/02/06","12:09:44","AMMA06",69638.000,"cc",28299.672,6.00,2829.967,1,6,0.100,37261.000,0.200,25435.000,0.300,4436.000,0.500,1500.000,1.000,1004.000,5.000,2.000
"07/02/06","12:09:50","AMMA06",70408.000,"cc",28330.479,6.00,2833.048,1,6,0.100,38136.000,0.200,25440.000,0.300,4335.000,0.500,1521.000,1.000,975.000,5.000,1.000
"07/02/06","12:09:56","AMMA06",73386.000,"cc",28335.660,6.00,2833.566,1,6,0.100,40345.000,0.200,26128.000,0.300,4455.000,0.500,1430.000,1.000,1027.000,5.000,1.000
"07/02/06","12:10:02","AMMA06",70846.000,"cc",28293.416,6.00,2829.342,1,6,0.100,38408.000,0.200,25557.000,0.300,4383.000,0.500,1504.000,1.000,993.000,5.000,1.000
"07/02/06","12:10:08","AMMA06",71417.000,"cc",28318.641,6.00,2831.864,1,6,0.100,39145.000,0.200,25513.000,0.300,4426.000,0.500,1389.000,1.000,942.000,5.000,2.000
"07/02/06","12:10:14","AMMA06",74173.000,"cc",28292.496,6.00,2829.250,1,6,0.100,41206.000,0.200,26034.000,0.300,4510.000,0.500,1456.000,1.000,966.000,5.000,1.000
"07/02/06","12:10:20","AMMA06",70412.000,"cc",28322.285,6.00,2832.229,1,6,0.100,38537.000,0.200,25267.000,0.300,4234.000,0.500,1475.000,1.000,897.000,5.000,2.000
"07/02/06","12:10:26","AMMA06",70197.000,"cc",28355.463,6.00,2835.546,1,6,0.100,37959.000,0.200,25368.000,0.300,4490.000,0.500,1428.000,1.000,952.000,5.000,0
"07/02/06","12:10:32","AMMA06",69791.000,"cc",28305.826,6.00,2830.583,1,6,0.100,37657.000,0.200,25271.000,0.300,4394.000,0.500,1474.000,1.000,995.000,5.000,0
"07/02/06","12:10:38","AMMA06",77652.000,"cc",28314.076,6.00,2831.408,1,6,0.100,44124.000,0.200,26597.000,0.300,4555.000,0.500,1455.000,1.000,921.000,5.000,0
"07/02/06","12:10:44","AMMA06",77593.000,"cc",28343.531,6.00,2834.353,1,6,0.100,44318.000,0.200,26489.000,0.300,4422.000,0.500,1418.000,1.000,945.000,5.000,1.000
"07/02/06","12:10:50","AMMA06",71608.000,"cc",28279.316,6.00,2827.932,1,6,0.100,39101.000,0.200,25657.000,0.300,4424.000,0.500,1425.000,1.000,1001.000,5.000,0
"07/02/06","12:10:56","AMMA06",70439.000,"cc",28321.395,6.00,2832.140,1,6,0.100,37877.000,0.200,25809.000,0.300,4333.000,0.500,1438.000,1.000,981.000,5.000,1.000
"07/02/06","12:11:02","AMMA06",69729.000,"cc",28333.367,6.00,2833.337,1,6,0.100,37498.000,0.200,25492.000,0.300,4367.000,0.500,1394.000,1.000,978.000,5.000,0
"07/02/06","12:11:08","AMMA06",70534.000,"cc",28280.664,6.00,2828.067,1,6,0.100,37941.000,0.200,25774.000,0.300,4404.000,0.500,1432.000,1.000,983.000,5.000,0
"07/02/06","12:11:14","AMMA06",70107.000,"cc",28304.268,6.00,2830.427,1,6,0.100,37514.000,0.200,25705.000,0.300,4399.000,0.500,1462.000,1.000,1026.000,5.000,1.000
"07/02/06","12:11:20","AMMA06",69986.000,"cc",28353.688,6.00,2835.369,1,6,0.100,37832.000,0.200,25410.000,0.300,4288.000,0.500,1503.000,1.000,953.000,5.000,0
"07/02/06","12:11:26","AMMA06",69748.000,"cc",28308.307,6.00,2830.831,1,6,0.100,37751.000,0.200,25153.000,0.300,4367.000,0.500,1499.000,1.000,977.000,5.000,1.000
"07/02/06","12:11:32","AMMA06",69765.000,"cc",28348.633,6.00,2834.864,1,6,0.100,37549.000,0.200,25280.000,0.300,4508.000,0.500,1441.000,1.000,986.000,5.000,1.000
"07/02/06","12:11:38","AMMA06",72060.000,"cc",28321.010,6.00,2832.101,1,6,0.100,39675.000,0.200,25663.000,0.300,4373.000,0.500,1407.000,1.000,940.000,5.000,2.000
"07/02/06","12:11:44","AMMA06",79714.000,"cc",28311.461,6.00,2831.146,1,6,0.100,46019.000,0.200,26777.000,0.300,4547.000,0.500,1436.000,1.000,934.000,5.000,1.000
"07/02/06","12:11:50","AMMA06",85794.000,"cc",28287.065,6.00,2828.707,1,6,0.100,50988.000,0.200,27753.000,0.300,4603.000,0.500,1499.000,1.000,951.000,5.000,0
"07/02/06","12:11:56","AMMA06",77385.000,"cc",28360.879,6.00,2836.088,1,6,0.100,43850.000,0.200,26557.000,0.300,4530.000,0.500,1507.000,1.000,941.000,5.000,0
"07/02/06","12:12:02","AMMA06",70163.000,"cc",28300.867,6.00,2830.087,1,6,0.100,37698.000,0.200,25522.000,0.300,4512.000,0.500,1414.000,1.000,1016.000,5.000,1.000
"07/02/06","12:12:08","AMMA06",70824.000,"cc",28314.199,6.00,2831.420,1,6,0.100,37950.000,0.200,25815.000,0.300,4587.000,0.500,1492.000,1.000,980.000,5.000,0
"07/02/06","12:12:14","AMMA06",69980.000,"cc",28321.732,6.00,2832.173,1,6,0.100,37211.000,0.200,25842.000,0.300,4496.000,0.500,1463.000,1.000,967.000,5.000,1.000
"07/02/06","12:12:20","AMMA06",71956.000,"cc",28338.238,6.00,2833.824,1,6,0.100,39189.000,0.200,25928.000,0.300,4451.000,0.500,1444.000,1.000,943.000,5.000,1.000
"07/02/06","12:12:26","AMMA06",86146.000,"cc",28323.135,6.00,2832.314,1,6,0.100,51467.000,0.200,27808.000,0.300,4518.000,0.500,1434.000,1.000,918.000,5.000,1.000
"07/02/06","12:12:32","AMMA06",83195.000,"cc",28278.031,6.00,2827.803,1,6,0.100,48703.000,0.200,27541.000,0.300,4648.000,0.500,1410.000,1.000,893.000,5.000,0
"07/02/06","12:12:38","AMMA06",70481.000,"cc",28275.848,6.00,2827.585,1,6,0.100,37599.000,0.200,25934.000,0.300,4543.000,0.500,1459.000,1.000,946.000,5.000,0
"07/02/06","12:12:44","AMMA06",70928.000,"cc",28338.309,6.00,2833.831,1,6,0.100,37887.000,0.200,25932.000,0.300,4630.000,0.500,1463.000,1.000,1015.000,5.000,1.000
"07/02/06","12:12:50","AMMA06",71470.000,"cc",28344.742,6.00,2834.474,1,6,0.100,38617.000,0.200,25910.000,0.300,4505.000,0.500,1428.000,1.000,1009.000,5.000,1.000
"07/02/06","12:12:56","AMMA06",88967.000,"cc",28297.859,6.00,2829.786,1,6,0.100,53634.000,0.200,28212.000,0.300,4682.000,0.500,1440.000,1.000,997.000,5.000,2.000
"07/02/06","12:13:02","AMMA06",71602.000,"cc",28354.945,6.00,2835.495,1,6,0.100,38857.000,0.200,25864.000,0.300,4433.000,0.500,1479.000,1.000,968.000,5.000,1.000
"07/02/06","12:13:08","AMMA06",71872.000,"cc",28292.791,6.00,2829.279,1,6,0.100,38834.000,0.200,25966.000,0.300,4580.000,0.500,1419.000,1.000,1073.000,5.000,0
"07/02/06","12:13:14","AMMA06",69817.000,"cc",28342.945,6.00,2834.295,1,6,0.100,37516.000,0.200,25428.000,0.300,4478.000,0.500,1445.000,1.000,948.000,5.000,2.000
"07/02/06","12:13:20","AMMA06",69923.000,"cc",28300.709,6.00,2830.071,1,6,0.100,37649.000,0.200,25404.000,0.300,4453.000,0.500,1444.000,1.000,971.000,5.000,2.000
"07/02/06","12:13:26","AMMA06",71032.000,"cc",28345.254,6.00,2834.526,1,6,0.100,38392.000,0.200,25731.000,0.300,4555.000,0.500,1412.000,1.000,942.000,5.000,0
"07/02/06","12:13:32","AMMA06",70441.000,"cc",28321.785,6.00,2832.179,1,6,0.100,38212.000,0.200,25372.000,0.300,4461.000,0.500,1461.000,1.000,935.000,5.000,0
"07/02/06","12:13:38","AMMA06",70162.000,"cc",28321.322,6.00,2832.132,1,6,0.100,38038.000,0.200,25162.000,0.300,4588.000,0.500,1424.000,1.000,949.000,5.000,1.000
"07/02/06","12:13:44","AMMA06",69948.000,"cc",28345.115,6.00,2834.512,1,6,0.100,37728.000,0.200,25481.000,0.300,4343.000,0.500,1447.000,1.000,948.000,5.000,1.000
"07/02/06","12:13:50","AMMA06",69551.000,"cc",28270.926,6.00,2827.093,1,6,0.100,37585.000,0.200,25238.000,0.300,4278.000,0.500,1437.000,1.000,1013.000,5.000,0
"07/02/06","12:13:56","AMMA06",69907.000,"cc",28309.900,6.00,2830.990,1,6,0.100,37716.000,0.200,25218.000,0.300,4500.000,0.500,1468.000,1.000,1004.000,5.000,1.000